Погода в Якушке

Россия / Ульяновская область     54°11′44″N   50°05′07″E
темп.,
°C
ветер,
м/с
пор.,
м/с
влажн.,
%
обл.,
%
осадки,
мм/ч
давл.,
гПа
погр.,
м
11 апреля, вс
вс1101:00+8в2594100 0.0 102280
04:00+9юв1189100 0.0 102320
07:00+9ююв2289100 0.0 102427
10:00+12ююз3681100 0.0 1026368
13:00+13зюз2476100 0.0 1028410
16:00+12ссз3484100 0.0 1029243
19:00+9с3692100 0.0 1031183
22:00+8ссв3695100 0.0 1031135
12 апреля, пн
пн1201:00+8св3795100 0.0 1032139
04:00+8св3696100 0.0 1033120
07:00+8св379699 0.0 1033156
10:00+12всв4573100 0.0 1034342
13:00+16в455593 0.0 1034767
16:00+18вюв344960 0.0 10331090
19:00+15в336563 0.0 103333
22:00+12в337577 0.0 103443
13 апреля, вт
вт1301:00+10вюв338178 0.0 103433
04:00+9юв228573 0.0 103423
07:00+9юв238294 0.0 103449
10:00+14ююв465272 0.0 1034423
13:00+17ююв4535100 0.0 1033892
16:00+18ююв453132 0.0 10321103
19:00+14ююв33485 0.0 103140
22:00+11ююв335610 0.0 103238
14 апреля, ср
ср1401:00+8ю33625 0.0 103137
04:00+7ю226572 0.0 103117
07:00+7ююв226660 0.0 103136
10:00+13ююв344731 0.0 1030370
13:00+17ююв34355 0.0 1028869
16:00+18ююв33325 0.0 10271118
19:00+14ююв22485 0.0 102512
22:00+11юв22575 0.0 102511
15 апреля, чт
чт1501:00+10юв11655 0.0 102410
04:00+8в11725 0.0 102310
07:00+9вюв22725 0.0 102212
10:00+15юв23565 0.0 1021380
13:00+18ююв34450 0.0 10201242
16:00+19ю34400 0.0 10171619
19:00+16ю22530 0.0 101622
22:00+12ю22570 0.0 101513